Regional Weather Roundup
Issued by NWS Boston, MA

Home | Current Version | Previous Version | Text Only | Print | Product List | Glossary On
Versions: 1 2 3 4 5 6 7 8 9 10 11 12 13 14 15 16 17 18 19 20 21 22 23 24 25 26 27 28 29 30 31 32 33 34 35 36 37 38 39 40 41 42 43 44 45 46 47 48 49
000
ASUS41 KBOX 301810
RWRBOX

REGIONAL WEATHER ROUNDUP
NATIONAL WEATHER SERVICE TAUNTON MA
200 PM EDT THU JUL 30 2015

NOTE:  "FAIR" INDICATES FEW OR NO CLOUDS BELOW 12,000 FEET WITH NO
SIGNIFICANT WEATHER AND/OR OBSTRUCTIONS TO VISIBILITY.  THE FOLLOWING
OBSERVATION LOCATIONS DO NOT REPORT PRESENT WEATHER...PROVINCETOWN...
SMITHFIELD...BLOCK ISLAND...KEENE...AND OXFORD.

MAZALL-301900-
EASTERN MASSACHUSETTS

CITY           SKY/WX    TMP DP  RH WIND       PRES   REMARKS
BOSTON         CLOUDY    89  70  53 SW21G28   29.80F HX  94
6HR MIN TEMP:  80; 6HR MAX TEMP:  90;

BEVERLY        CLOUDY    90  71  53 W18G29    29.79F HX  96
LAWRENCE       CLOUDY    89  72  56 SW10G24   29.81F HX  96
BEDFORD        CLOUDY    88  71  57 SW15      29.79F HX  94
BLUE HILL        N/A     86  71  60 SW21G28   29.83F HX  91
NORWOOD        CLOUDY    88  72  58 SW21G28   29.81F HX  94
MARSHFIELD     PTSUNNY   88  73  62 SW13G24   29.84S HX  96
PLYMOUTH       CLOUDY    86  73  65 SW15G23   29.85F HX  93
TAUNTON        CLOUDY    86  73  65 SW12G24   29.84F HX  93
NEW BEDFORD    CLOUDY    84  74  71 SW17G25   29.85F HX  91
$$

MAZALL-301900-
CAPE COD AND THE ISLANDS

CITY           SKY/WX    TMP DP  RH WIND       PRES   REMARKS
FALMOUTH       CLOUDY    81  73  78 SW24G30   29.88F
HYANNIS        CLOUDY    84  73  69 SW18G31   29.86F HX  90
CHATHAM        CLOUDY    81  74  79 SW8G26    29.89F
PROVINCETOWN   CLOUDY    81  68  65 SW17G24   29.85S
NANTUCKET      PTSUNNY   77  71  82 SW12      29.91S
MARTHAS VNYRD  CLOUDY    80  74  81 SW16G23   29.89F
$$

MAZALL-301900-
CENTRAL AND WESTERN MASSACHUSETTS

CITY           SKY/WX    TMP DP  RH WIND       PRES   REMARKS
WORCESTER      PTSUNNY   84  70  62 SW14G23   29.86F
6HR MIN TEMP:  75; 6HR MAX TEMP:  85;

FITCHBURG      PTSUNNY   89  70  53 SW16G22   29.82F HX  94
ORANGE         PTSUNNY   86  71  60 SW9       29.82F HX  91
SPRINGFIELD    PTSUNNY   86  73  64 S12       29.80F HX  93
WESTFIELD      PTSUNNY   86  73  65 S13       29.81F HX  93
NORTH ADAMS    PTSUNNY   81  70  69 S9        29.81F
PITTSFIELD     PTSUNNY   79  70  74 S8        29.84F
$$

RIZALL-301900-
RHODE ISLAND

CITY           SKY/WX    TMP DP  RH WIND       PRES   REMARKS
PROVIDENCE     CLOUDY    86  73  65 SW18G24   29.85F HX  93
6HR MIN TEMP:  79; 6HR MAX TEMP:  87;

NEWPORT        CLOUDY    79  73  82 SW13G20   29.88F
BLOCK ISLAND     N/A     79  73  83 SW18G24   29.90F
SMITHFIELD     PTSUNNY   82  75  78 SW8       29.85F
WESTERLY       PTSUNNY   81  73  76 SW10G18   29.88F
$$

CTZALL-301900-
CONNECTICUT

CITY           SKY/WX    TMP DP  RH WIND       PRES   REMARKS
BRADLEY INTL   PTSUNNY   87  72  60 SW16G25   29.81F HX  93
6HR MIN TEMP:  78; 6HR MAX TEMP:  88;

HARTFORD       PTSUNNY   89  74  60 SW12G24   29.81F HX  98
BRIDGEPORT     PTSUNNY   85  75  72 SW13      29.85F HX  93
DANBURY        PTSUNNY   84  73  69 SW10      29.86F HX  90
GROTON         CLOUDY    78  73  84 SW15      29.86F
NEW HAVEN      CLOUDY    83  75  77 S9        29.86F HX  90
CHESTER        NOT AVBL
MERIDEN        PTSUNNY   86  73  65 S12G20    29.84F HX  93
WILLIMANTIC    CLOUDY    86  72  62 SW18G26   29.84F HX  92
OXFORD         CLOUDY    82  72  69 S12G17    29.89F HAZE
$$

MEZ002-015-021-024-NHZ003-005-008-011-012-014-VTZ005-008-301900-
NORTHERN NEW ENGLAND

CITY           SKY/WX    TMP DP  RH WIND       PRES   REMARKS
PORTLAND ME    PTSUNNY   84  70  62 SE8       29.78F
6HR MIN TEMP:  73; 6HR MAX TEMP:  84;

BANGOR ME      CLOUDY    83  68  60 S12       29.79F
CONCORD NH     PTSUNNY   91  70  49 S10G20    29.78F HX  96
MANCHESTER NH  PTSUNNY   89  71  55 S17G23    29.77F HX  95
NASHUA NH      MOSUNNY   88  73  62 SW8       29.79  HX  96
PORTSMOUTH NH  PTSUNNY   90  70  51 S12       29.76F HX  95
JAFFREY NH     PTSUNNY   84  70  62 S14G28    29.85F
KEENE NH       PTSUNNY   88  70  55 S13G22    29.80F HX  92
BURLINGTON VT  LGT RAIN  78  72  81 SW8       29.74S
MT. WASHINGTON NOT AVBL
$$

NYZ052-076-301900-
EASTERN NEW YORK

CITY           SKY/WX    TMP DP  RH WIND       PRES   REMARKS
ALBANY         RAIN      80  75  84 SW7       29.79S
6HR MIN TEMP:  77; 6HR MAX TEMP:  88; 6HR PCP:  0.14;

NEW YORK CITY  LGT RAIN  83  73  72 S13       29.83F
6HR MIN TEMP:  80; 6HR MAX TEMP:  87; 6HR PCP:  0.06;

$$

ANZALL-301900-
MARINE OBSERVATIONS

STATION/POSITION TIME  TEMP    WIND        PRES    VSBY  WAVE
                       AIR SEA DIR/SP/G                  HT/PER
                 (UTC) (F)     (DEG/KT/KT) (MB)    (MI)  (FT/S)
BOSTON BUOY      1750   77 72  200/  8/ 10 1009.8F         2/10
BUZZARDS BAY     1700          220/ 20/ 21 1012.8F
NANTUCKET SOUND  1750   75 74  230/ 17/ 21 1011.7F         2/ 3
MASS BAY-STELLWA 1704   75 71  180/ 10/ 10   N/A    1 7/8
ISLE OF SHOALS   1700   76     180/ 16/ 17 1008.8F
S OF BLOCK IS    1708      74                N/A           4/ 5
$$

......................KEY.........................
  SKY/WX - SKY CONDITION/PRESENT WEATHER
  TMP    - TEMPERATURE IN FAHRENHEIT
  DWPT   - DEWPOINT IN FAHRENHEIT
  RH     - RELATIVE HUMIDITY IN PERCENT
  WIND   - DIRECTION AND SPEED IN MPH
  PRES   - MEAN SEA LEVEL PRESSURE IN INCHES OF HG
  WCI    - WIND CHILL INDEX
  VSB    - VISIBILITY IN MILES
  HX     - HEAT INDEX
  TC     - TEMPERATURE IN CELSIUS
  VRB    - VARIABLE WIND DIRECTION
  N/A    - NOT AVAILABLE



USA.gov is the U.S. government's official web portal to all federal, state and local government web resources and services.